Regional Weather Roundup
Issued by NWS

Home | Current Version | Previous Version | Graphics & Text | Print | Product List | Glossary On
Versions: 1 2 3 4 5 6 7 8 9 10 11 12 13 14 15 16 17 18 19 20 21 22 23 24 25 26 27 28 29 30 31 32 33 34 35 36 37 38 39 40 41 42 43
000
ASUS45 KBOU 260307
RWRCO

WEATHER ROUNDUP FOR COLORADO
NATIONAL WEATHER SERVICE DENVER/BOULDER CO
800 PM MST THU DEC 25 2014

NOTE: "FAIR" INDICATES FEW OR NO CLOUDS BELOW 12000 FEET WITH NO
SIGNIFICANT WEATHER AND/OR OBSTRUCTIONS TO VISIBILITY.

COZ001>005-013-030-031-260400-
...NORTHWEST COLORADO...

CITY           SKY/WX    TMP DP  RH WIND       PRES   REMARKS
CRAIG          CLOUDY    25  22  88 SW7       29.62R WCI  17
HAYDEN         CLOUDY    21  19  93 N6        29.60R WCI  14
MEEKER         FLURRIES  26  21  81 NW7       29.61R WCI  18
MOUNT WERNER   NOT AVBL
STEAMBOAT SPGS CLOUDY    25  23  93 SW6       29.59R WCI  18
WALDEN         CLOUDY    18  14  86 NE26G36   29.57F VSB 1/4 WCI  -1
$$

COZ006>008-011-260400-
...WEST CENTRAL VALLEYS...

CITY           SKY/WX    TMP DP  RH WIND       PRES   REMARKS
GRAND JUNCTION CLOUDY    28  25  88 N12       29.65R WCI  18
MONTROSE       PTCLDY    29  24  82 NE3       29.64R
EAGLE          CLOUDY    28  23  80 CALM      29.61R
RIFLE          CLOUDY    29  27  92 W10       29.62R WCI  20
DELTA          PTCLDY    30  27  87 CALM      29.65R
NUCLA          MOCLDY    28  21  74 SW5       29.69R WCI  23
$$

COZ017>023-064>068-260400-
...SOUTHWEST COLORADO...

CITY           SKY/WX    TMP DP  RH WIND       PRES   REMARKS
DURANGO        MOCLDY    28  25  88 W6        29.65R WCI  22
CORTEZ         CLOUDY    30  20  66 CALM      29.67R
PAGOSA SPRINGS LGT SNOW  26  26  99 S8        29.65R WCI  18
TELLURIDE      CLOUDY    20  13  74 CALM      29.61R
WOLF CREEK PAS CLOUDY    10   9  92 MISG      29.57R
$$

COZ009-010-012-014-032>034-037-058>063-260400-
...CENTRAL COLORADO...

CITY           SKY/WX    TMP DP  RH WIND       PRES   REMARKS
ASPEN          FLURRIES  24  21  88 W3        29.57R
BUENA VISTA    MOCLDY    26  14  62 CALM      29.59R
COPPER MTN     CLOUDY    18   5  57 SE16G23   29.53S WCI   3
BERTHOUD PASS  LGT SNOW   0  -6  78 MISG      29.56S VSB 3/4
COTTONWOOD PAS CLOUDY    25  12  58 CALM      29.57S
GUNNISON       CLOUDY    14   9  79 S6        29.63R WCI   5
KREMMLING      CLOUDY    28  19  69 N14       29.59R WCI  17
LEADVILLE      MOCLDY    13   7  77 CALM      29.55R
MONARCH PASS   CLOUDY    10   9  92 MISG      29.66S
SALIDA         CLOUDY    32  18  56 S9G20     29.67S WCI  24
SUNLIGHT       LGT SNOW  18  14  86 MISG      29.57R
WILKERSON PASS SNOW     N/A N/A N/A E3        29.62S VSB 1/4
$$

COZ069>075-260400-
...SAN LUIS VALLEY/SANGRE DE CRISTO MOUNTAINS...

CITY           SKY/WX    TMP DP  RH WIND       PRES   REMARKS
ALAMOSA        CLOUDY    28  23  81 S7        29.63R WCI  21
LA VETA PASS   NOT AVBL
SAGUACHE       CLOUDY    16  12  86 NW5       29.62S WCI   9
$$

COZ035-036-038>040-260400-
...NORTHERN COLORADO FRONT RANGE...

CITY           SKY/WX    TMP DP  RH WIND       PRES   REMARKS
DENVER INTL AP LGT SNOW  24  22  91 N10       29.78R VSB 1   WCI  14
DMNS CITY PARK   N/A     24  23  96 N9        29.80R WCI  15
AURORA         LGT SNOW  23  23  99 N13       29.79R FOG     WCI  11
FRONT RANGE AP NOT AVBL
ERIE MUNI ARPT LGT SNOW  25  24  96 N14       29.81R WCI  14
BOULDER MUN AP LGT SNOW  27  27 100 N16G22    29.82R WCI  14
CENTENNIAL     LGT SNOW  23  22  96 N14       29.77R VSB 1   WCI  11
BROOMFIELD     LGT SNOW  25  23  93 N13       29.79R VSB 1   WCI  13
FORT COLLINS   CLOUDY    25  21  86 N9        29.84R WCI  15
LONGMONT       LGT SNOW  27  24  89 N10       29.85R WCI  17
$$

COZ041-046-047-076>085-087-088-260400-
...PIKES PEAK/PALMER DIVIDE AND SOUTHERN FOOTHILLS...

CITY           SKY/WX    TMP DP  RH WIND       PRES   REMARKS
COLO. SPRINGS  MOCLDY    28  20  71 N21G35    29.67R WCI  15
A. F. ACADEMY  MOCLDY    25  19  80 N23G31    29.69R WCI  10
ELLICOTT       NOT AVBL
FALCON         CLOUDY    25  23  93 N21G29    29.67R WCI  10
FORT CARSON    MOCLDY    30  22  74 N24G33    29.66R WCI  16
LIMON          FRZ RAIN  26  24  92 N15       29.71R WCI  14
MONUMENT HILL  LGT SNOW  21  19  93 N13G23    29.71R WCI   9
TRINIDAD       CLOUDY    34  24  67 W9        29.63R WCI  27
$$

COZ042>045-048>051-090-091-260400-
...NORTHEAST COLORADO...

CITY           SKY/WX    TMP DP  RH WIND       PRES   REMARKS
GREELEY ARPT   CLOUDY    25  19  80 N10       29.81R WCI  15
AKRON          LGT SNOW  24  23  96 N20       29.75R FOG     WCI  10
BURLINGTON     CLOUDY    28  24  85 N16       29.72R WCI  16
WRAY           CLOUDY    30  27  88 N18G25    29.76R WCI  18
STERLING       LGT SNOW  30  27  86 NE14      29.78R WCI  20
HOLYOKE        CLOUDY    30  27  86 N22       29.76R FOG     WCI  17
FORT MORGAN    LGT SNOW  25  22  89 N16       29.80R WCI  12
$$

COZ086-089-092>099-260400-
...SOUTHEAST COLORADO...

CITY           SKY/WX    TMP DP  RH WIND       PRES   REMARKS
PUEBLO         CLEAR     32  25  75 NE16      29.66R WCI  21
LA JUNTA       CLEAR     33  26  75 NE10      29.68R WCI  25
LAMAR          CLEAR     32  25  75 NE8       29.67R WCI  25
SPRINGFIELD      N/A     36  20  52 SW8       29.62R
$$



USA.gov is the U.S. government's official web portal to all federal, state and local government web resources and services.